Total_Precipitation_Accumulation
2.29 2.43 3.74 3.88 3.37 3.17 3.24 3.07 3.01 2.96 2.82 2.75 2.62 2.48 2.32 2.13 1.93 1.79 1.62 1.52 1.48 1.53 1.54 1.53 1.56 1.51 1.39 1.28 1.30 1.48 1.55 1.78 1.93 1.92 1.97 2.08 2.07 2.21 2.35 2.60 2.86 3.00 2.92
1.91 2.34 3.64 3.77 3.24 2.93 2.97 2.97 3.04 3.01 2.81 2.62 2.46 2.42 2.18 2.05 1.93 1.78 1.61 1.53 1.46 1.54 1.65 1.70 1.63 1.48 1.33 1.27 1.34 1.50 1.53 1.64 1.83 1.92 2.15 2.34 2.34 2.39 2.25 2.44 2.74 3.02 2.95
1.76 2.03 2.77 3.36 3.14 2.94 2.87 2.81 2.94 2.99 2.81 2.61 2.48 2.46 2.08 1.93 1.89 1.82 1.75 1.70 1.66 1.69 1.66 1.72 1.75 1.62 1.45 1.39 1.48 1.58 1.65 1.71 1.73 1.85 2.39 3.15 2.62 2.44 2.56 2.71 2.93 2.90 2.87
1.68 1.77 2.18 3.04 2.98 2.86 3.01 2.93 2.92 2.95 2.90 2.73 2.52 2.27 1.96 1.92 1.93 1.98 2.03 1.96 1.84 1.82 1.89 1.88 1.87 1.73 1.61 1.57 1.62 1.67 1.82 1.85 1.91 1.94 2.35 3.00 2.90 2.68 2.67 2.86 3.06 2.80 2.75
1.61 1.73 2.33 2.89 2.75 2.65 2.75 2.84 2.89 3.00 3.00 2.89 2.57 2.14 1.94 1.88 1.87 1.93 2.05 2.03 1.94 1.89 1.89 1.88 1.77 1.67 1.64 1.58 1.66 1.75 1.79 1.82 2.01 1.84 2.13 2.78 3.28 3.00 2.55 2.72 2.87 2.74 2.70
1.51 1.61 2.07 2.63 2.61 2.48 2.49 2.75 2.68 2.68 2.70 2.64 2.42 2.14 1.96 1.96 1.86 1.92 2.01 1.96 1.89 1.75 1.70 1.72 1.68 1.58 1.56 1.54 1.57 1.64 1.75 1.89 1.86 1.92 2.25 2.83 3.25 3.01 2.45 2.50 2.75 2.90 2.87
1.47 1.43 1.68 2.22 2.32 2.30 2.34 2.53 2.58 2.50 2.44 2.30 2.16 2.03 1.89 1.91 1.90 1.88 1.79 1.63 1.58 1.56 1.57 1.73 1.72 1.54 1.55 1.58 1.56 1.55 1.67 1.66 1.62 1.92 2.24 2.73 2.83 2.73 2.34 2.42 2.80 3.06 3.02
1.42 1.32 1.44 1.84 2.00 1.96 1.99 2.33 2.55 2.33 2.38 2.24 2.04 1.94 1.86 1.81 1.80 1.71 1.52 1.45 1.47 1.56 1.63 1.63 1.57 1.49 1.55 1.58 1.60 1.64 1.76 1.45 1.24 1.49 1.90 2.54 3.02 2.87 2.40 2.35 2.66 2.90 3.07
1.52 1.38 1.35 1.37 1.49 1.69 1.93 2.00 2.20 2.27 2.35 2.22 1.92 1.82 1.78 1.60 1.48 1.46 1.48 1.54 1.49 1.54 1.54 1.47 1.42 1.46 1.59 1.65 1.66 1.64 1.61 1.35 1.22 1.53 1.70 2.41 3.08 2.97 2.51 2.36 2.51 2.65 2.86
1.37 1.29 1.19 1.12 1.19 1.31 1.52 1.75 1.91 2.05 2.06 1.96 1.82 1.81 1.77 1.55 1.38 1.41 1.42 1.64 1.63 1.55 1.59 1.52 1.44 1.43 1.51 1.64 1.58 1.41 1.24 1.05 1.06 1.30 1.89 2.42 3.27 3.18 2.67 2.44 2.39 2.34 2.39
1.23 1.17 1.11 1.02 1.07 1.17 1.26 1.38 1.55 1.58 1.60 1.50 1.37 1.43 1.35 1.17 1.10 1.21 1.27 1.63 1.76 1.82 1.76 1.67 1.61 1.54 1.44 1.45 1.41 1.20 0.97 0.92 1.08 1.28 1.84 2.69 3.22 3.17 2.70 2.42 2.37 2.19 2.08
1.29 1.16 1.05 1.03 1.03 1.05 1.06 1.32 1.50 1.27 1.19 1.10 1.08 1.05 1.05 1.11 1.16 1.01 1.16 1.51 1.52 1.57 1.62 1.60 1.57 1.38 1.12 0.98 1.00 0.97 0.87 0.92 0.99 1.15 1.82 2.81 3.07 3.05 2.68 2.34 2.20 2.05 1.94
1.22 1.11 0.99 1.03 0.98 0.90 0.99 1.14 1.34 1.37 1.35 1.29 1.12 1.11 1.05 0.99 0.95 0.84 0.85 1.01 1.07 1.16 1.14 1.22 1.23 1.04 0.88 0.85 0.87 0.87 0.85 0.88 0.98 1.16 1.89 2.88 3.16 3.09 2.88 2.51 2.28 2.08 2.03
1.13 1.19 1.01 0.97 0.93 0.83 0.74 0.81 0.95 1.01 1.03 1.03 1.05 1.00 1.00 1.07 1.05 0.92 0.92 1.00 1.04 1.02 1.14 1.17 1.18 1.07 0.92 0.79 0.80 0.86 0.89 0.88 1.02 1.33 1.83 2.60 3.16 3.30 3.22 2.83 2.56 2.35 2.18
1.25 1.18 1.10 1.04 1.00 0.98 0.92 0.84 0.79 0.81 0.87 0.91 0.99 0.92 0.88 0.96 1.06 1.05 1.01 1.10 1.08 1.07 1.13 1.12 0.99 1.01 0.98 0.87 0.84 0.85 0.91 0.92 1.10 1.24 1.55 2.12 2.83 3.48 3.63 3.33 2.86 2.58 2.47
1.21 1.27 1.22 1.11 1.10 1.00 0.95 0.96 0.97 0.90 0.91 0.94 1.00 0.91 0.82 0.84 0.89 1.02 1.05 1.14 1.06 1.09 1.17 1.07 1.03 1.05 1.05 0.94 0.88 0.90 0.89 0.94 1.04 1.18 1.34 1.69 2.12 2.79 3.46 3.63 3.27 2.91 2.64
1.12 1.24 1.32 1.28 1.25 1.12 1.04 1.04 1.04 0.99 0.91 0.92 0.96 0.85 0.80 0.86 0.89 1.00 1.08 1.10 1.10 1.10 1.10 1.13 1.16 1.12 1.03 0.96 0.98 0.95 0.91 0.92 1.08 1.20 1.26 1.46 1.54 1.71 2.45 3.23 3.52 3.37 3.11
1.14 1.15 1.22 1.21 1.25 1.26 1.20 1.13 1.09 1.02 0.97 0.99 0.98 0.91 0.86 0.86 0.93 1.16 1.20 1.09 1.14 1.24 1.26 1.30 1.27 1.20 1.14 1.13 1.16 1.11 1.04 1.06 1.20 1.28 1.23 1.23 1.29 1.24 1.52 2.04 2.54 2.94 3.26
1.10 1.09 1.14 1.16 1.35 1.40 1.34 1.33 1.27 1.18 1.20 1.20 1.19 1.13 1.03 0.99 1.11 1.32 1.41 1.27 1.25 1.40 1.38 1.28 1.33 1.39 1.38 1.41 1.31 1.31 1.28 1.29 1.28 1.22 1.19 1.25 1.30 1.32 1.41 1.39 1.65 2.03 2.71
0.94 0.95 1.03 1.11 1.25 1.39 1.53 1.61 1.61 1.53 1.49 1.58 1.62 1.55 1.33 1.27 1.32 1.51 1.66 1.60 1.52 1.66 1.69 1.56 1.68 1.78 1.70 1.76 1.60 1.50 1.44 1.42 1.36 1.34 1.32 1.38 1.49 1.41 1.47 1.44 1.44 1.29 1.71
0.77 0.75 0.85 1.05 1.25 1.41 1.56 1.75 1.92 2.05 2.10 2.02 1.95 1.97 1.85 1.65 1.73 1.87 1.86 2.08 2.13 2.11 2.16 2.12 2.28 2.34 2.09 1.95 2.32 2.25 1.82 1.48 1.34 1.42 1.51 1.57 1.68 1.71 1.69 1.68 1.64 1.40 1.32
0.66 0.69 0.79 0.97 1.25 1.47 1.65 1.88 2.08 2.43 2.57 2.50 2.46 2.31 2.21 2.08 2.10 2.02 2.12 2.37 2.40 2.51 2.60 2.46 2.65 2.79 2.47 2.18 2.67 3.17 2.75 2.24 1.57 1.32 1.43 1.59 1.79 1.83 1.78 1.66 1.67 1.63 1.55
0.51 0.59 0.72 0.85 1.07 1.40 1.73 2.01 2.22 2.45 2.72 2.80 2.66 2.57 2.49 2.49 2.52 2.40 2.37 2.53 2.57 2.65 2.84 2.86 2.83 3.01 2.97 2.62 2.58 3.18 3.19 2.80 2.33 1.73 1.54 1.61 1.80 1.91 1.95 1.90 1.74 1.76 1.67
0.54 0.62 0.74 0.85 0.99 1.21 1.47 1.86 2.22 2.50 2.84 2.86 2.71 2.69 2.69 2.69 2.67 2.60 2.56 2.66 2.69 2.68 2.78 2.83 2.82 3.14 3.40 3.20 2.88 2.63 2.58 2.61 2.67 2.32 1.89 1.72 1.82 1.91 2.04 1.95 1.98 2.05 2.01
0.59 0.66 0.80 0.91 1.04 1.21 1.46 1.79 2.17 2.43 2.67 2.84 2.80 2.64 2.56 2.61 2.49 2.36 2.44 2.60 2.63 2.65 2.66 2.83 2.95 3.24 3.30 3.25 3.16 3.01 2.80 2.61 2.22 2.31 2.29 2.05 1.98 1.87 1.96 2.12 2.20 2.25 2.19
0.67 0.76 0.90 1.03 1.18 1.32 1.46 1.59 1.76 1.99 2.30 2.46 2.60 2.61 2.59 2.60 2.43 2.24 2.29 2.36 2.45 2.52 2.49 2.54 2.73 2.93 3.18 3.33 3.26 3.10 3.07 3.00 2.78 2.56 2.25 2.13 2.26 2.12 1.96 1.96 2.05 2.13 2.28